Location: Limerick
(52.6800°N, 8.6400°W)
Time: 13:03:24
(UTC+01:00)

ISS - All Passes

Search period start: 28 March 2017 00:00
Search period end: 07 April 2017 00:00
Orbit: 399 x 409 km, 51.6° (Epoch: 28 March)

Date Brightness Start Highest point End Pass type
(mag) Time Alt. Az. Time Alt. Az. Time Alt. Az.
28 Mar - 00:00:24 10° WSW 00:03:39 69° S 00:06:57 10° E night (unlit)
28 Mar - 01:36:47 10° W 01:40:03 64° SSW 01:43:20 10° ESE night (unlit)
28 Mar - 03:13:27 10° W 03:16:11 24° SSW 03:18:55 10° SSE night (unlit)
28 Mar - 21:32:50 10° SSW 21:35:18 20° SSE 21:37:47 10° E visible
28 Mar - 23:08:07 10° WSW 23:11:21 58° SSE 23:14:36 10° E visible
29 Mar - 00:44:27 10° W 00:47:44 73° S 00:51:01 10° E night (unlit)
29 Mar - 02:20:57 10° W 02:23:59 34° SSW 02:27:00 10° SE night (unlit)
29 Mar - 20:41:30 10° S 20:43:11 13° SE 20:44:52 10° ESE visible
29 Mar - 22:15:55 10° SW 22:19:03 44° SSE 22:22:13 10° E visible
29 Mar - 23:52:06 10° W 23:55:23 76° S 23:58:40 10° E visible
30 Mar - 01:28:32 10° W 01:31:44 46° SSW 01:34:54 10° SE night (unlit)
30 Mar - 03:05:45 10° WSW 03:07:38 14° SW 03:09:31 10° S night (unlit)
30 Mar - 21:23:50 10° SW 21:26:48 32° SSE 21:29:46 10° E visible
30 Mar - 22:59:45 10° WSW 23:03:01 72° S 23:06:18 10° E visible
31 Mar - 00:36:09 10° W 00:39:24 59° SSW 00:42:40 10° ESE night (unlit)
31 Mar - 02:12:54 10° W 02:15:29 21° SSW 02:18:04 10° SSE night (unlit)
31 Mar - 20:31:56 10° SSW 20:34:34 23° SSE 20:37:14 10° E daylight
31 Mar - 22:07:26 10° WSW 22:10:40 62° SSE 22:13:55 10° E visible
31 Mar - 23:43:47 10° W 23:47:03 70° S 23:50:20 10° ESE visible
01 Apr - 01:20:20 10° W 01:23:16 30° SSW 01:26:12 10° SE night (unlit)
01 Apr - 19:40:23 10° S 19:42:23 15° SE 19:44:25 10° ESE daylight
01 Apr - 21:15:10 10° WSW 21:18:20 49° SSE 21:21:31 10° E visible
01 Apr - 22:51:24 10° W 22:54:41 75° S 22:57:58 10° E visible
02 Apr - 00:27:51 10° W 00:30:59 42° SSW 00:34:07 10° SE visible
02 Apr - 02:05:22 10° WSW 02:06:50 12° SW 02:08:17 10° SSW night (unlit)
02 Apr - 20:22:59 10° SW 20:26:01 36° SSE 20:29:04 10° E daylight
02 Apr - 21:59:01 10° W 22:02:17 74° S 22:05:34 10° E visible
02 Apr - 23:35:26 10° W 23:38:38 55° SSW 23:41:52 10° ESE visible
03 Apr - 01:12:17 10° W 01:14:40 19° SW 01:17:03 10° SSE night (unlit)
03 Apr - 19:30:59 10° SSW 19:33:44 26° SSE 19:36:31 10° E daylight
03 Apr - 21:06:38 10° WSW 21:09:53 66° S 21:13:08 10° E visible
03 Apr - 22:43:01 10° W 22:46:16 67° S 22:49:32 10° ESE visible
04 Apr - 00:19:35 10° W 00:22:26 27° SSW 00:25:16 10° SSE visible
04 Apr - 18:39:14 10° S 18:41:30 18° SE 18:43:47 10° E daylight
04 Apr - 20:14:18 10° WSW 20:17:29 53° SSE 20:20:42 10° E daylight
04 Apr - 21:50:35 10° W 21:53:51 74° S 21:57:08 10° E visible
04 Apr - 23:27:03 10° W 23:30:07 38° SSW 23:33:12 10° SE visible
05 Apr - 01:05:10 10° SW 01:05:55 11° SW 01:06:39 10° SSW night (unlit)
05 Apr - 17:48:09 10° SSE 17:49:19 12° SE 17:50:30 10° ESE daylight
05 Apr - 19:22:03 10° SW 19:25:08 40° SSE 19:28:13 10° E daylight
05 Apr - 20:58:09 10° W 21:01:25 75° S 21:04:42 10° E visible
05 Apr - 22:34:35 10° W 22:37:46 50° SSW 22:40:58 10° ESE visible
06 Apr - 00:11:35 10° WSW 00:13:43 16° SW 00:15:53 10° S visible
06 Apr - 18:29:56 10° SW 18:32:47 29° SSE 18:35:40 10° E daylight
06 Apr - 20:05:44 10° WSW 20:08:59 69° S 20:12:14 10° E daylight
06 Apr - 21:42:07 10° W 21:45:22 63° S 21:48:36 10° ESE visible
06 Apr - 23:18:46 10° W 23:21:28 24° SSW 23:24:11 10° SSE visible
